THOR ABLESTAR DEB

Satellite information

Favourite Embed

Satellite Type and Status

DEBRISIN ORBIT

Key statistics

Satellite THOR ABLESTAR DEB at a glance.

Uptime

23324

Days in orbit

Revolutions

≈ 13.8

Per day

Orbit

LEO

Low Earth Orbit

Inclination

66.8

Latest

Satellite identification and parameters

Extended collection of information and parameters for THOR ABLESTAR DEB.

Object identification

Identified? True

Debris? True

Object name: THOR ABLESTAR DEB

International designator: 1961-015EC

Object number (NORAD): 403

Object ID (CCSDS): 403

Country: UNITED STATES OF AMERICA (US)

Current information (Y/N): Y

RCS size: SMALL

Orbital parameters

Period: 104.261 minutes

Inclination: 66.8402 deg

SMA: 7337.95 km

Apoapsis: 970.423 km

Periapsis: 949.207 km

RAAN: 178.9944 deg

Eccentricy: 0.0014456

Argument of periapsis: 103.4383 deg

Mean anomaly: 13.9671 deg

Mean motion: 13.81149395 rev/day

Mean motion (dot): 0.00000048 rev/day2

B* drag term: 0.00011589 1/REarth

Two-line elements (TLE)

Creation date: May 8, 2025, 3:01 a.m.

Reference frame: TEME

Reference center: EARTH

Epoch: May 7, 2025, 1:28 p.m. UTC

TLE line 0: 0 THOR ABLESTAR DEB

TLE line 1: 1 00403U 61015EC 25127.56116459 .00000048 00000-0 11589-3 0 9993

TLE line 2: 2 00403 66.8402 178.9944 0014456 103.4383 13.9671 13.81149395215132

Live tracking on map

Real-time ground track for satellite THOR ABLESTAR DEB.

In-orbit conjunctions

A list of the most updated potential collisions computed for object THOR ABLESTAR DEB.

Target Orbit TCA Probability of collision Miss distance Type
COSMOS 928 LEO 2024-11-29 14:52:28 0.002608421 149.0 (m) PAYLOAD
THORAD AGENA D DEB SSO 2024-06-24 22:15:27 0.0002542361 269.0 (m) DEBRIS

Associated space launch

THOR ABLESTAR DEB was lifted into orbit during the mission ‘Thor DM-21 Ablestar | Transit 4A & Injun-1 & Solrad 3’, on board a Thor DM-21 Ablestar space rocket.

The launch took place on June 29, 1961, 4:23 a.m. from Space Launch Complex 17B.

For more information about the launch, click the button.

Launch to space Thor DM-21 Ablestar | Transit 4A & Injun-1 & Solrad 3
Thor DM-21 Ablestar | Transit 4A & Injun-1 & Solrad 3

Agency: N/A

Status: Launch Successful

Launch date: June 29, 1961, 4:23 a.m. UTC

Rocket: Thor DM-21 Ablestar

Launch pad: Space Launch Complex 17B

Location: Cape Canaveral SFS, FL, USA

...

Latest news about this satellite

There are no fresh news available about this satellite. Check back as we update our databases every day.


Newsletter sign-up

Weekly statistics, charts and insights to help you stay on top of the space industry.